RYR821N LOWW-LQBK

Flight info

Callsign RYR821N
Flight time N/A
Altitude 30000
Route RUPET DCT GRZ/N0389F290 DCT GOLVA DCT MIRSO DCT PETOV DCT NOVLO
Aircraft B738/M-SDE2E3FGHIRWXY/LB1

Departure

Time 2026-04-30 14:34
Airport Vienna International Airport (LOWW)

Arrival

Time N/A
Airport Banja Luka International Airport (LQBK)
Time Latitude Longitude Altitude Speed Heading
2026-04-30 13:12 48.11936 16.55806 621 ft 0 kts 296°
2026-04-30 14:23 48.11934 16.55814 608 ft 4 kts 295°
2026-04-30 14:23 48.11919 16.55890 620 ft 4 kts 265°
2026-04-30 14:24 48.11936 16.55931 627 ft 1 kts 206°
2026-04-30 14:29 48.11909 16.55911 625 ft 10 kts 206°
2026-04-30 14:30 48.11603 16.56065 609 ft 20 kts 116°
2026-04-30 14:31 48.11464 16.56492 613 ft 26 kts 116°
2026-04-30 14:31 48.11304 16.56983 615 ft 25 kts 116°
2026-04-30 14:31 48.11228 16.57214 612 ft 26 kts 116°
2026-04-30 14:32 48.11101 16.57610 610 ft 1 kts 115°
2026-04-30 14:32 48.11071 16.57642 607 ft 14 kts 162°
2026-04-30 14:32 48.10941 16.57569 615 ft 21 kts 216°
2026-04-30 14:33 48.10935 16.57470 607 ft 0 kts 294°
2026-04-30 14:33 48.11203 16.56646 611 ft 113 kts 296°
2026-04-30 14:33 48.11650 16.55342 740 ft 158 kts 300°
2026-04-30 14:34 48.12122 16.53817 1499 ft 171 kts 300°
2026-04-30 14:34 48.12476 16.52077 2348 ft 182 kts 272°
2026-04-30 14:34 48.12043 16.50162 2809 ft 216 kts 233°
2026-04-30 14:34 48.10761 16.48863 3116 ft 240 kts 203°
2026-04-30 14:35 48.08040 16.47290 3849 ft 267 kts 201°
2026-04-30 14:35 48.05951 16.45133 4839 ft 274 kts 225°
2026-04-30 14:35 48.04537 16.43188 5702 ft 281 kts 224°
2026-04-30 14:36 48.03080 16.41226 6664 ft 282 kts 222°
2026-04-30 14:36 48.01587 16.39247 7398 ft 290 kts 221°
2026-04-30 14:36 48.00071 16.37254 8307 ft 291 kts 221°
2026-04-30 14:36 47.98533 16.35245 9110 ft 297 kts 221°
2026-04-30 14:37 47.96966 16.33204 9937 ft 302 kts 222°
2026-04-30 14:37 47.95657 16.30718 10474 ft 316 kts 246°
2026-04-30 14:37 47.94824 16.27569 10744 ft 336 kts 252°
2026-04-30 14:37 47.94041 16.24241 11380 ft 343 kts 253°
2026-04-30 14:38 47.93250 16.20864 12163 ft 347 kts 252°
2026-04-30 14:38 47.92440 16.17463 12982 ft 350 kts 252°
2026-04-30 14:38 47.91606 16.14018 13802 ft 355 kts 252°
2026-04-30 14:38 47.90758 16.10550 14575 ft 359 kts 252°
2026-04-30 14:39 47.89891 16.07027 15303 ft 364 kts 252°
2026-04-30 14:39 47.89022 16.03509 16039 ft 369 kts 252°
2026-04-30 14:39 47.88086 15.99868 16754 ft 375 kts 247°
2026-04-30 14:40 47.84331 15.94452 18186 ft 390 kts 203°
2026-04-30 14:40 47.81832 15.92957 18887 ft 395 kts 200°
2026-04-30 14:40 47.79237 15.91534 19504 ft 400 kts 199°
2026-04-30 14:40 47.76612 15.90121 20162 ft 404 kts 199°
2026-04-30 14:41 47.73960 15.88680 20824 ft 407 kts 199°
2026-04-30 14:41 47.71295 15.87212 21464 ft 411 kts 200°
2026-04-30 14:41 47.68598 15.85709 22110 ft 416 kts 200°
2026-04-30 14:41 47.65879 15.84182 22738 ft 419 kts 200°
2026-04-30 14:42 47.63144 15.82643 23360 ft 423 kts 200°
2026-04-30 14:42 47.60383 15.81088 23945 ft 427 kts 200°
2026-04-30 14:42 47.57584 15.79513 24464 ft 431 kts 200°
2026-04-30 14:42 47.54771 15.77934 24942 ft 434 kts 200°
2026-04-30 14:43 47.51938 15.76345 25476 ft 435 kts 200°
2026-04-30 14:43 47.49114 15.74764 26163 ft 433 kts 200°
2026-04-30 14:43 47.46310 15.73195 26850 ft 431 kts 199°
2026-04-30 14:43 47.43511 15.71626 27478 ft 430 kts 200°
2026-04-30 14:44 47.40715 15.70058 28130 ft 428 kts 199°
2026-04-30 14:44 47.37936 15.68498 28753 ft 428 kts 199°
2026-04-30 14:44 47.35155 15.66939 29358 ft 427 kts 199°
2026-04-30 14:44 47.32382 15.65386 30022 ft 425 kts 199°
2026-04-30 14:45 47.29616 15.63839 30384 ft 429 kts 199°
2026-04-30 14:45 47.26780 15.62256 30350 ft 440 kts 199°
2026-04-30 14:45 47.20924 15.58992 30363 ft 459 kts 199°
2026-04-30 14:46 47.14836 15.55607 30361 ft 477 kts 200°
2026-04-30 14:46 47.09613 15.52706 30361 ft 489 kts 200°
2026-04-30 14:47 47.03164 15.49132 30354 ft 501 kts 200°
2026-04-30 14:47 46.96417 15.46776 30363 ft 500 kts 176°
2026-04-30 14:48 46.92992 15.47449 30344 ft 495 kts 162°
2026-04-30 14:48 46.89826 15.49305 30350 ft 488 kts 148°